Flag for U.S.A. Weather past 2 weeks in Dallas, Texas, U.S.A.

Now
73 °F

Partly cloudy.


Feels Like: 73 °F
Forecast: 70 / 87 °F
Wind: 7 mph from East

Location: Dallas Love Field

Current Time: Sep 30, 2014 at 8:20:35 AM

Latest Report: Sep 30, 2014 at 7:53 AM


Visibility: 10 mi

Pressure: 29.89 "Hg

Humidity: 79%

Dew point: 66 °F

Location of DallasLocation

Historic Weather in Dallas — Graph

°F

Dallas temperature yesterday

Maximum temperature yesterday: 89 °F (at 4:53 PM)
Minimum temperature yesterday: 68 °F (at 5:53 AM)
Average temperature yesterday: 78 °F

Past Weeks' High & Low Weather Summary

 TemperatureHumidityPressure
High95 °F (Sep 21, 4:53 PM)93% (Sep 20, 5:53 AM)30.19 "Hg (Sep 20, 5:53 AM)
Low61 °F (Sep 24, 6:53 AM)21% (Sep 24, 3:53 PM)29.81 "Hg (Sep 18, 4:53 PM)
Average79 °F58%30.02 "Hg
* Reported Sep 15 6:53 AM — Sep 30 6:53 AM, Dallas, Weather by CustomWeather, © 2014

Note: Actual official high and low records may vary slightly from our data, if they occured in-between our weather recording intervals... More about our weather records

Advertising

Dallas weather history for previous 24 hours

 ConditionsComfort  
Time TempWeatherWind HumidityBarometerVisibility
6:53 AM
Sep 30
72 °FPartly cloudy.6 mph81%29.88 "Hg10 mi
5:53 AM72 °FPassing clouds.5 mph78%29.87 "Hg10 mi
4:53 AM73 °FPassing clouds.3 mph76%29.87 "Hg10 mi
3:53 AM74 °FPassing clouds.6 mph74%29.87 "Hg10 mi
2:53 AM73 °FPassing clouds.8 mph76%29.88 "Hg10 mi
1:53 AM75 °FPassing clouds.5 mph69%29.88 "Hg10 mi
12:53 AM74 °FPassing clouds.7 mph71%29.88 "Hg10 mi
11:53 PM
Sep 29
77 °FPassing clouds.6 mph64%29.89 "Hg10 mi
10:53 PM79 °FPassing clouds.8 mph60%29.88 "Hg10 mi
9:53 PM80 °FPassing clouds.8 mph58%29.88 "Hg10 mi
8:53 PM80 °FPassing clouds.7 mph56%29.89 "Hg10 mi
7:53 PM81 °FPassing clouds.7 mph54%29.88 "Hg10 mi
6:53 PM84 °FScattered clouds.8 mph48%29.88 "Hg10 mi
5:53 PM86 °FScattered clouds.7 mph43%29.88 "Hg10 mi
4:53 PM89 °FScattered clouds.9 mph38%29.88 "Hg10 mi
3:53 PM88 °FScattered clouds.12 mph39%29.90 "Hg10 mi
2:53 PM88 °FScattered clouds.7 mph42%29.92 "Hg10 mi
1:53 PM87 °FPartly sunny.9 mph43%29.95 "Hg10 mi
12:53 PM84 °FScattered clouds.5 mph48%29.97 "Hg10 mi
11:53 AM82 °FScattered clouds.9 mph53%30.00 "Hg10 mi
10:53 AM81 °FPassing clouds.7 mph53%30.01 "Hg10 mi
9:53 AM79 °FPassing clouds.7 mph56%30.02 "Hg10 mi
8:53 AM74 °FPassing clouds.7 mph67%30.01 "Hg10 mi
Weather by CustomWeather, © 2014

See weather overviewHow to use our weather pages